Location: Chaumontel
(49.1247°N, 2.4324°E)
Time: 09:08:00
(UTC+00:00)

Cosmos 2333 Rocket - Pass Details

Date: 03 February 2023
Orbit: 837 x 864 km, 70.8° (Epoch: 23 March)

Event Time Altitude Azimuth Distance (km) Brightness Sun altitude
Rises 18:11:44 0° 177° (S) 3,377 5.4 -13.6°
Reaches altitude 10° 18:14:21 10° 168° (SSE) 2,450 4.6 -14.0°
Maximum altitude 18:19:20 33° 106° (ESE) 1,376 2.8 -14.8°
Enters shadow 18:22:25 20° 57° (ENE) 1,876 3.5 -15.3°
